TimeEDT,TemperatureF,Dew PointF,Humidity,Sea Level PressureIn,VisibilityMPH,Wind Direction,Wind SpeedMPH,Gust SpeedMPH,PrecipitationIn,Events,Conditions,WindDirDegrees,DateUTC
12:53 AM,78.1,73.9,87,29.87,10.0,SW,5.8,-,N/A,,Partly Cloudy,220,2012-10-20 04:53:00
1:53 AM,77.0,73.9,90,29.87,10.0,SSW,4.6,-,N/A,,Partly Cloudy,210,2012-10-20 05:53:00
2:53 AM,78.1,73.9,87,29.86,10.0,West,5.8,-,N/A,,Clear,270,2012-10-20 06:53:00
3:53 AM,77.0,73.0,88,29.85,10.0,West,6.9,-,N/A,,Clear,280,2012-10-20 07:53:00
4:53 AM,77.0,73.9,90,29.85,10.0,WNW,5.8,-,N/A,,Partly Cloudy,300,2012-10-20 08:53:00
5:53 AM,77.0,73.9,90,29.86,10.0,WNW,3.5,-,N/A,,Partly Cloudy,300,2012-10-20 09:53:00
6:53 AM,77.0,73.9,90,29.87,10.0,Calm,Calm,-,N/A,,Partly Cloudy,0,2012-10-20 10:53:00
7:53 AM,75.0,73.9,96,29.88,8.0,Calm,Calm,-,N/A,,Partly Cloudy,0,2012-10-20 11:53:00
8:53 AM,79.0,75.0,88,29.91,10.0,NW,6.9,-,N/A,,Scattered Clouds,320,2012-10-20 12:53:00
9:11 AM,78.8,73.4,83,29.91,10.0,NNW,8.1,-,N/A,,Mostly Cloudy,340,2012-10-20 13:11:00
9:35 AM,80.6,69.8,70,29.92,10.0,NNW,11.5,-,N/A,,Scattered Clouds,340,2012-10-20 13:35:00
9:53 AM,81.0,66.9,62,29.93,10.0,NNW,9.2,-,N/A,,Partly Cloudy,330,2012-10-20 13:53:00
10:53 AM,82.9,68.0,60,29.93,10.0,NNW,4.6,-,N/A,,Scattered Clouds,330,2012-10-20 14:53:00
11:53 AM,84.9,70.0,61,29.92,10.0,NNE,5.8,-,N/A,,Partly Cloudy,20,2012-10-20 15:53:00
12:53 PM,84.0,72.0,67,29.90,10.0,ENE,9.2,-,N/A,,Mostly Cloudy,70,2012-10-20 16:53:00
1:53 PM,84.9,72.0,65,29.86,10.0,Variable,6.9,-,N/A,,Partly Cloudy,0,2012-10-20 17:53:00
2:53 PM,84.0,72.0,67,29.85,10.0,ENE,10.4,-,N/A,,Scattered Clouds,70,2012-10-20 18:53:00
3:53 PM,84.0,72.0,67,29.84,10.0,ENE,12.7,-,N/A,,Scattered Clouds,60,2012-10-20 19:53:00
4:53 PM,82.0,71.1,69,29.85,10.0,NE,12.7,-,N/A,,Mostly Cloudy,50,2012-10-20 20:53:00
5:53 PM,82.0,71.1,69,29.85,10.0,NNE,13.8,-,N/A,,Mostly Cloudy,30,2012-10-20 21:53:00
6:53 PM,80.1,71.1,74,29.86,10.0,NE,11.5,-,N/A,,Partly Cloudy,40,2012-10-20 22:53:00
7:53 PM,80.1,71.1,74,29.89,10.0,East,9.2,-,N/A,,Partly Cloudy,80,2012-10-20 23:53:00
8:53 PM,81.0,70.0,69,29.91,10.0,ENE,6.9,-,N/A,,Partly Cloudy,70,2012-10-21 00:53:00
9:53 PM,80.1,70.0,71,29.91,10.0,ENE,5.8,-,N/A,,Partly Cloudy,60,2012-10-21 01:53:00
10:53 PM,79.0,70.0,74,29.93,10.0,North,4.6,-,N/A,,Partly Cloudy,360,2012-10-21 02:53:00
11:53 PM,77.0,71.1,82,29.93,10.0,NNW,4.6,-,N/A,,Scattered Clouds,340,2012-10-21 03:53:00